Location: Mauries
(43.6188°N, 0.3322°W)
Time: 13:09:02
(UTC+00:00)

Envisat - Pass Details

Date: 21 March 2026
Orbit: 761 x 762 km, 98.4° (Epoch: 14 April)

Event Time Altitude Azimuth Distance (km) Brightness Sun altitude
Rises 03:55:01 0° 1° (N) 3,234 6.6 -23.3°
Reaches altitude 10° 03:57:45 10° 347° (NNW) 2,303 5.6 -22.9°
Enters shadow 04:00:34 21° 315° (NW) 1,661 4.5 -22.4°
